Temperature
6 6 5 5 4 4 4 3 3 3 3 2 2 2 1 0 -0 -1 -1 -1 -2 -2 -3 -4 -5 -4 -4 -4 -3 -3 -3 -3 -3 -2 -2 -2 -1 -1 -1 -0 0 1 2
6 5 5 5 4 4 3 3 3 2 2 2 1 1 1 -0 -1 -1 -2 -2 -3 -3 -3 -4 -5 -5 -5 -5 -4 -4 -4 -4 -3 -3 -3 -3 -2 -2 -2 -1 -1 -0 1
6 5 5 5 4 4 3 3 2 2 2 1 1 1 0 -0 -1 -2 -2 -3 -3 -4 -4 -4 -5 -6 -6 -5 -5 -5 -5 -5 -4 -4 -4 -3 -3 -3 -2 -2 -1 -1 -0
5 5 5 4 4 3 3 2 2 2 1 1 0 0 -0 -0 -1 -2 -2 -3 -4 -4 -5 -5 -5 -6 -6 -6 -6 -6 -6 -5 -5 -5 -4 -4 -4 -3 -3 -2 -2 -1 -1
5 5 5 4 4 3 3 2 2 1 1 0 -0 -0 -1 -1 -1 -1 -2 -3 -4 -4 -5 -5 -6 -6 -6 -7 -7 -7 -6 -6 -6 -6 -5 -5 -4 -4 -3 -3 -2 -2 -1
5 5 5 4 3 3 3 2 1 1 0 -0 -1 -1 -1 -1 -1 -1 -2 -3 -3 -4 -5 -5 -6 -6 -7 -7 -7 -7 -7 -7 -6 -6 -6 -5 -5 -4 -4 -3 -3 -2 -2
6 5 5 4 4 3 3 2 1 1 -0 -1 -2 -3 -2 -2 -2 -2 -2 -3 -3 -4 -5 -5 -6 -6 -7 -7 -7 -7 -8 -7 -7 -7 -6 -6 -5 -5 -4 -4 -3 -3 -2
6 5 5 4 4 3 2 2 1 1 -0 -2 -3 -5 -4 -3 -4 -3 -3 -3 -4 -4 -5 -6 -6 -6 -7 -7 -8 -8 -8 -8 -8 -7 -7 -6 -6 -5 -5 -4 -4 -3 -2
6 5 5 4 4 3 2 2 1 0 -0 -2 -3 -4 -5 -4 -4 -5 -5 -4 -5 -5 -6 -6 -7 -7 -7 -8 -8 -8 -8 -8 -8 -8 -7 -7 -6 -5 -5 -4 -4 -3 -3
7 6 5 5 4 3 3 2 1 1 -0 -2 -3 -3 -4 -5 -7 -6 -5 -5 -6 -6 -6 -7 -7 -7 -8 -8 -8 -8 -8 -9 -8 -8 -7 -7 -6 -6 -5 -5 -4 -4 -3
8 7 6 5 4 3 3 2 1 1 -0 -1 -2 -3 -5 -6 -7 -8 -7 -6 -6 -6 -6 -7 -7 -7 -8 -8 -8 -8 -9 -9 -9 -8 -8 -7 -7 -6 -6 -5 -5 -4 -4
9 8 7 5 4 4 3 2 1 1 -0 -1 -2 -3 -4 -6 -6 -7 -7 -7 -6 -6 -6 -7 -7 -7 -7 -8 -8 -8 -9 -9 -9 -9 -8 -8 -8 -7 -7 -6 -6 -5 -4
10 9 7 6 5 4 3 2 1 1 -0 -1 -1 -2 -3 -4 -5 -7 -8 -7 -7 -7 -7 -7 -7 -7 -7 -8 -8 -8 -9 -9 -9 -9 -9 -8 -8 -8 -7 -7 -6 -6 -5
9 9 7 6 5 4 3 2 1 1 -0 -1 -1 -2 -3 -4 -5 -6 -7 -8 -8 -8 -7 -6 -6 -7 -7 -8 -8 -9 -9 -9 -9 -9 -9 -9 -9 -8 -8 -7 -7 -6 -6
8 7 6 5 4 3 2 2 1 0 -0 -1 -1 -2 -3 -3 -5 -6 -7 -8 -9 -9 -8 -7 -7 -7 -7 -8 -8 -9 -9 -9 -9 -9 -9 -9 -9 -8 -8 -8 -7 -7 -6
8 7 5 4 3 2 2 1 1 -0 -1 -1 -1 -2 -3 -3 -4 -5 -7 -8 -9 -10 -9 -8 -8 -8 -8 -8 -8 -8 -9 -9 -9 -9 -9 -9 -9 -9 -8 -8 -8 -7 -6
8 7 5 4 2 1 1 1 0 -0 -1 -1 -2 -2 -3 -3 -5 -5 -7 -8 -9 -9 -10 -9 -8 -8 -8 -8 -8 -8 -9 -9 -9 -9 -9 -9 -9 -9 -9 -8 -8 -7 -7
8 6 5 3 2 1 0 0 -0 -1 -1 -1 -2 -2 -3 -4 -4 -5 -7 -8 -8 -9 -9 -9 -9 -8 -8 -8 -8 -8 -9 -9 -9 -9 -9 -9 -9 -9 -9 -8 -8 -7 -7
7 6 4 3 2 1 0 -0 -1 -1 -1 -2 -2 -2 -3 -4 -4 -5 -6 -7 -8 -9 -9 -9 -9 -9 -8 -8 -8 -8 -9 -9 -9 -9 -9 -10 -10 -9 -9 -9 -8 -8 -7
7 6 4 3 1 -0 -1 -1 -1 -2 -2 -2 -2 -3 -3 -4 -4 -5 -6 -7 -8 -9 -9 -9 -9 -8 -8 -8 -8 -8 -9 -9 -9 -9 -9 -10 -10 -10 -9 -9 -8 -8 -7
6 4 3 1 0 -1 -2 -2 -2 -2 -2 -3 -3 -3 -3 -4 -4 -5 -6 -7 -7 -8 -8 -8 -8 -8 -8 -8 -8 -9 -9 -9 -9 -9 -10 -10 -10 -10 -10 -9 -9 -8 -7
5 4 2 0 -1 -2 -2 -3 -3 -3 -3 -3 -3 -3 -4 -4 -4 -5 -6 -7 -7 -8 -8 -8 -8 -8 -8 -8 -9 -9 -9 -10 -10 -10 -10 -10 -10 -10 -9 -9 -9 -8 -7
4 3 2 -0 -1 -2 -3 -3 -4 -3 -3 -3 -3 -3 -4 -4 -5 -5 -6 -7 -8 -8 -8 -8 -9 -9 -9 -9 -9 -10 -10 -10 -10 -10 -10 -10 -10 -10 -10 -9 -9 -8 -7
4 2 1 -0 -2 -2 -3 -4 -5 -4 -4 -4 -3 -4 -4 -4 -5 -6 -6 -7 -7 -8 -8 -9 -9 -9 -9 -10 -10 -10 -10 -11 -11 -10 -11 -11 -10 -10 -10 -9 -9 -8 -7
3 2 0 -1 -2 -3 -3 -4 -5 -5 -5 -4 -4 -4 -4 -5 -5 -6 -7 -8 -8 -8 -8 -9 -9 -9 -9 -10 -10 -11 -11 -11 -11 -11 -11 -11 -11 -11 -10 -9 -8 -8 -7
2 1 -1 -2 -3 -3 -4 -4 -5 -5 -5 -5 -5 -4 -4 -5 -5 -6 -7 -8 -8 -8 -8 -9 -9 -9 -10 -10 -10 -11 -12 -12 -12 -12 -11 -11 -11 -11 -10 -9 -8 -8 -7
Wind_Speed
11 10 9 8 7 6 5 4 3 3 4 5 6 7 8 9 10 11 11 13 15 17 18 19 20 21 22 23 24 25 26 27 28 29 29 30 30 31 32 34 35 35 36
12 11 10 9 8 8 6 5 4 4 5 6 7 8 9 11 11 12 12 13 14 16 17 18 19 21 22 23 24 25 27 28 29 30 30 31 31 32 33 34 35 36 37
14 13 10 10 9 8 8 6 6 6 6 7 8 10 10 11 12 13 13 13 13 14 16 17 19 20 22 23 24 26 27 28 29 30 31 32 33 33 34 36 36 37 38
17 14 12 11 11 10 9 8 7 6 6 7 7 8 10 11 14 14 14 13 13 12 14 16 18 20 21 23 24 26 27 28 30 31 32 33 34 34 36 37 37 38 39
20 17 14 12 12 11 10 8 7 7 7 7 8 8 10 11 13 13 14 14 14 14 14 15 18 20 21 22 24 25 27 28 30 31 32 34 35 36 37 38 38 39 40
22 19 15 15 14 11 10 9 9 8 7 7 8 10 11 12 12 12 13 13 13 14 15 16 16 16 19 22 23 25 27 28 30 31 33 35 36 37 38 39 39 41 42
23 21 16 16 16 12 12 11 10 10 9 7 7 8 10 12 11 10 11 12 13 14 15 16 16 16 16 20 23 25 26 28 30 32 33 35 36 38 39 40 40 42 43
24 22 21 16 16 13 14 13 12 9 8 8 6 6 6 6 9 9 10 10 12 13 14 16 17 18 18 18 20 25 27 29 30 32 34 35 37 38 40 40 41 43 42
26 25 24 20 17 15 13 15 14 14 10 9 9 7 6 5 5 7 11 11 11 11 13 15 18 19 20 20 21 23 26 28 31 33 34 36 37 39 40 40 42 43 42
27 27 25 24 20 17 16 15 15 13 13 11 9 10 11 8 6 6 6 9 12 13 14 14 17 19 21 21 22 26 28 29 31 33 35 37 38 39 41 41 42 43 42
26 27 26 24 21 18 18 17 16 16 13 13 11 9 10 11 12 10 10 11 11 12 13 14 16 18 20 21 21 24 28 30 32 34 36 37 38 40 41 41 42 42 42
18 24 26 24 22 19 19 18 17 18 15 15 13 11 11 9 9 11 13 14 14 14 14 14 15 17 19 20 23 27 29 31 33 34 36 37 38 39 40 41 42 42 42
17 21 22 22 20 20 20 19 17 17 18 17 15 13 12 13 12 12 13 15 16 16 16 15 14 16 18 19 21 26 28 31 33 34 36 36 37 38 40 41 41 41 41
17 19 22 22 22 22 20 19 16 17 15 17 17 16 13 13 12 13 13 14 15 16 17 18 14 15 17 19 22 26 27 30 32 34 35 36 37 38 39 40 40 40 40
16 19 21 22 22 22 21 19 16 18 16 17 16 17 15 13 13 13 13 13 14 15 18 20 16 16 17 20 23 24 25 29 33 34 36 37 38 38 39 39 39 39 39
19 19 20 22 22 22 21 20 17 17 17 16 14 15 16 13 13 13 13 13 14 16 17 17 17 18 19 19 25 26 27 32 34 35 36 36 37 38 38 38 38 37 37
20 20 20 21 22 22 22 21 20 18 19 18 16 16 17 16 14 13 13 14 14 15 18 20 19 19 22 22 21 23 25 25 25 32 34 35 36 37 37 37 37 36 36
19 20 20 21 22 22 22 22 21 20 19 19 18 17 18 15 17 15 14 15 15 16 18 22 21 20 23 22 22 22 20 21 23 29 33 35 35 36 36 35 35 34 34
19 19 20 21 22 22 22 22 21 20 20 19 18 18 18 17 17 15 16 15 15 15 17 19 21 19 19 19 21 21 22 20 21 25 29 31 32 33 33 33 33 33 32
19 20 20 21 20 20 19 20 19 19 19 18 17 17 17 17 18 17 15 17 16 17 18 18 19 19 18 19 18 18 18 18 18 18 22 24 27 30 31 32 32 31 31
18 18 19 20 20 18 17 19 18 19 19 18 17 17 18 20 22 19 15 16 16 15 15 16 18 18 18 17 17 17 18 19 20 18 18 18 18 17 19 22 25 27 27
17 18 19 19 20 17 24 29 23 19 18 18 17 17 18 20 23 26 27 26 23 18 17 17 18 19 20 20 18 17 19 20 21 16 16 18 17 17 16 15 21 25 25
17 18 19 20 21 23 28 30 32 20 18 17 17 16 14 15 20 16 20 23 23 26 25 20 21 21 21 20 20 22 20 21 21 18 18 20 18 18 16 17 24 25 26
15 16 18 20 20 22 28 30 31 24 18 18 17 17 16 16 15 15 14 15 17 17 19 16 17 19 19 19 19 20 21 21 22 18 17 18 17 17 16 16 22 24 25
15 16 16 19 20 21 27 30 29 18 17 18 17 17 17 17 19 20 16 16 17 16 18 22 23 23 26 26 22 16 17 17 19 17 13 13 15 16 16 15 15 19 21
14 14 16 17 19 19 23 29 30 16 17 15 15 16 20 20 20 20 16 15 17 15 13 14 16 18 17 18 21 15 14 15 16 14 10 9 12 11 10 10 9 9 10
Wind_Direction
199 198 202 203 209 211 217 233 257 288 301 308 306 305 304 302 298 296 293 295 298 301 302 304 306 308 309 309 310 311 311 310 309 309 309 308 308 307 305 303 301 298 295
203 200 204 206 210 213 219 231 250 270 281 286 288 289 290 290 286 284 283 285 285 289 292 296 301 303 305 306 307 308 308 307 307 306 305 304 304 303 302 300 297 295 292
206 204 207 208 210 210 215 225 235 252 265 272 275 279 281 280 278 278 277 277 278 279 281 287 294 298 301 302 304 305 305 304 304 302 302 301 300 300 299 297 295 292 289
208 207 210 212 208 207 214 222 231 243 251 261 271 275 275 274 274 273 272 268 269 273 277 280 287 293 296 298 300 301 301 302 301 300 299 298 298 297 296 294 293 290 287
208 209 213 212 207 209 213 219 226 235 248 256 266 272 273 270 271 269 265 262 261 265 271 277 281 285 289 292 295 297 298 299 299 298 297 296 296 294 294 293 291 290 286
208 210 213 213 208 211 213 215 223 226 241 254 266 270 270 268 267 263 261 259 258 262 267 273 279 281 283 287 291 293 295 296 296 296 296 294 293 291 292 292 289 289 288
208 210 212 212 209 213 215 216 220 228 232 236 257 267 264 257 256 254 254 256 260 264 267 270 275 279 283 285 287 289 291 294 294 294 293 292 291 290 289 290 290 288 286
210 210 213 212 210 214 216 216 216 223 228 221 233 265 279 257 231 244 252 257 263 267 269 271 275 278 281 284 283 286 288 290 291 292 292 291 289 288 289 288 289 289 286
212 211 213 213 212 212 214 213 211 217 223 219 220 233 255 273 285 252 251 255 261 266 270 275 277 278 280 282 284 285 285 287 288 290 290 290 289 288 288 288 289 290 286
215 213 213 213 213 212 215 213 212 215 220 227 221 225 235 252 266 284 258 253 257 264 269 274 278 279 280 281 280 282 284 285 286 288 288 289 289 289 288 289 289 290 288
216 215 213 213 213 213 214 212 209 212 215 222 224 224 231 240 239 248 273 279 274 270 274 277 278 279 279 279 279 280 282 284 285 286 287 288 289 289 289 290 290 290 289
216 216 213 213 213 212 213 212 211 212 214 219 225 228 230 234 239 244 262 275 282 282 282 280 278 278 277 277 277 279 282 283 284 285 286 286 287 288 289 289 290 290 289
219 216 212 213 213 212 211 209 210 213 215 218 221 226 231 236 244 252 262 274 280 284 284 280 275 276 277 277 278 280 282 283 283 283 284 284 285 286 286 287 288 289 289
225 219 214 214 213 210 209 208 210 213 215 218 223 226 232 237 240 245 254 269 280 283 283 282 283 282 283 282 280 282 282 281 281 282 282 283 283 283 283 284 285 286 287
228 222 217 215 213 210 208 206 211 212 213 217 222 225 231 238 240 243 248 253 264 279 284 287 289 288 287 284 282 281 280 280 281 281 281 281 281 282 282 282 283 283 283
228 225 220 217 214 211 209 207 211 213 213 216 220 226 230 235 239 242 245 249 252 261 274 282 287 288 288 284 282 281 280 281 281 281 281 281 281 281 281 281 281 280 281
229 226 223 218 215 212 209 208 210 210 213 217 218 225 231 235 240 243 245 248 251 255 266 278 282 286 287 286 284 282 281 281 280 280 280 281 281 280 280 279 278 278 278
230 227 224 220 218 213 209 208 210 210 211 216 220 223 231 233 238 243 246 249 253 255 263 275 282 285 285 286 285 285 284 281 280 281 281 281 281 280 279 278 277 277 276
231 227 224 223 219 215 210 209 209 210 212 216 219 223 229 231 237 241 244 250 254 258 261 269 278 282 284 285 286 285 284 282 282 282 282 281 280 280 278 277 276 275 273
231 228 225 224 222 216 211 209 208 209 212 216 220 224 228 230 236 241 246 250 255 260 263 267 275 282 285 287 287 289 290 288 286 285 283 282 280 280 277 276 274 272 270
235 232 230 227 223 218 212 207 206 208 211 216 221 225 229 233 235 239 242 248 252 257 265 272 278 284 287 291 292 294 292 293 289 288 287 283 282 279 278 274 270 268 266
235 232 230 228 226 222 217 212 207 209 211 215 220 225 231 238 242 246 250 254 257 263 271 276 280 283 287 292 295 294 294 293 292 291 288 287 284 280 277 272 269 268 266
236 233 230 228 228 225 220 217 212 208 212 216 220 225 230 234 238 242 252 260 267 270 270 272 277 281 288 292 294 292 290 288 289 292 292 286 284 280 279 274 273 268 264
237 234 231 229 230 228 223 221 218 212 216 219 221 225 231 236 235 239 247 256 260 262 264 267 269 274 279 284 285 287 290 290 287 285 282 282 284 284 284 279 275 268 264
240 235 233 230 230 229 223 221 219 216 219 222 224 227 232 239 243 245 250 258 265 266 268 268 269 275 281 288 290 292 291 290 290 292 288 280 285 290 288 283 278 271 263
243 239 236 232 231 230 224 221 218 216 218 221 224 226 231 236 243 246 249 258 266 273 276 278 278 278 281 284 286 281 282 285 287 291 288 281 285 295 293 286 292 296 278
Height
1565 1564 1564 1563 1563 1562 1561 1560 1559 1558 1556 1554 1552 1549 1547 1544 1541 1538 1535 1532 1530 1527 1525 1523 1522 1521 1520 1518 1516 1514 1512 1509 1507 1505 1503 1501 1499 1497 1496 1494 1493 1492 1492
1560 1560 1560 1559 1558 1558 1557 1556 1555 1553 1552 1550 1548 1545 1543 1540 1537 1534 1531 1528 1525 1522 1520 1518 1516 1515 1514 1512 1510 1508 1506 1503 1501 1499 1497 1495 1493 1491 1490 1488 1487 1486 1485
1555 1555 1555 1554 1554 1553 1552 1551 1550 1549 1547 1546 1543 1541 1538 1536 1533 1529 1526 1523 1520 1517 1515 1512 1510 1509 1508 1506 1504 1502 1499 1497 1495 1492 1490 1488 1486 1485 1483 1481 1480 1479 1478
1550 1550 1549 1549 1549 1548 1547 1546 1545 1544 1542 1540 1539 1536 1534 1531 1528 1525 1522 1519 1516 1513 1510 1507 1504 1502 1501 1499 1497 1495 1493 1490 1488 1485 1483 1481 1479 1477 1476 1474 1473 1471 1470
1543 1543 1543 1543 1543 1542 1541 1541 1539 1538 1536 1535 1533 1531 1528 1526 1523 1520 1517 1514 1511 1508 1505 1501 1498 1496 1493 1491 1489 1488 1485 1483 1480 1478 1476 1473 1471 1470 1468 1466 1465 1463 1461
1536 1536 1536 1536 1536 1535 1535 1534 1533 1532 1530 1529 1527 1524 1522 1520 1517 1514 1512 1509 1506 1502 1499 1496 1493 1490 1487 1484 1482 1480 1477 1475 1472 1470 1468 1466 1464 1462 1460 1458 1456 1454 1452
1528 1528 1528 1529 1528 1528 1528 1528 1527 1525 1524 1522 1520 1518 1515 1513 1511 1508 1506 1503 1500 1497 1494 1490 1487 1484 1480 1477 1474 1471 1469 1467 1464 1462 1459 1457 1456 1454 1452 1449 1447 1444 1441
1519 1519 1520 1520 1520 1520 1520 1520 1520 1519 1518 1516 1515 1513 1511 1509 1504 1502 1500 1497 1494 1491 1488 1485 1481 1478 1474 1470 1466 1463 1460 1458 1456 1454 1451 1449 1447 1445 1443 1440 1437 1433 1430
1509 1510 1511 1512 1512 1512 1512 1512 1512 1512 1511 1510 1508 1508 1507 1503 1501 1496 1493 1491 1488 1485 1481 1478 1475 1471 1468 1464 1459 1455 1452 1449 1447 1445 1443 1441 1439 1436 1433 1430 1427 1423 1420
1498 1499 1501 1502 1502 1502 1502 1503 1503 1503 1503 1502 1501 1499 1499 1497 1495 1490 1487 1485 1482 1478 1475 1472 1468 1465 1461 1456 1452 1448 1445 1441 1439 1436 1434 1432 1429 1426 1423 1420 1417 1413 1409
1487 1488 1490 1491 1491 1492 1493 1493 1493 1494 1494 1494 1494 1492 1491 1490 1487 1485 1480 1478 1476 1473 1470 1466 1462 1457 1453 1449 1444 1440 1437 1434 1431 1428 1425 1423 1420 1417 1413 1410 1406 1403 1399
1474 1476 1477 1479 1480 1481 1482 1483 1484 1484 1484 1485 1485 1484 1483 1482 1480 1478 1474 1470 1468 1465 1462 1458 1454 1450 1446 1441 1437 1433 1429 1425 1422 1419 1416 1413 1410 1407 1403 1400 1396 1392 1388
1462 1463 1465 1466 1468 1469 1472 1473 1474 1474 1475 1475 1475 1475 1474 1473 1472 1470 1467 1463 1459 1455 1453 1450 1447 1443 1439 1434 1429 1425 1421 1417 1413 1410 1406 1403 1400 1396 1393 1389 1385 1382 1378
1452 1453 1453 1455 1457 1459 1461 1462 1463 1464 1465 1465 1466 1466 1465 1464 1463 1462 1460 1457 1452 1447 1444 1441 1439 1436 1432 1427 1422 1417 1411 1407 1404 1400 1396 1393 1389 1386 1382 1379 1375 1372 1368
1442 1442 1442 1443 1445 1447 1449 1451 1452 1453 1455 1456 1457 1457 1456 1456 1455 1453 1452 1450 1447 1440 1433 1430 1430 1426 1423 1418 1413 1408 1403 1398 1394 1390 1386 1382 1379 1375 1371 1368 1364 1361 1358
1432 1431 1431 1431 1433 1435 1437 1439 1441 1443 1444 1446 1447 1448 1447 1447 1446 1445 1443 1441 1438 1434 1426 1420 1419 1417 1413 1409 1404 1400 1394 1389 1384 1380 1376 1371 1367 1364 1360 1356 1353 1351 1348
1422 1420 1420 1420 1421 1423 1425 1427 1429 1432 1434 1436 1437 1438 1438 1438 1437 1436 1434 1432 1430 1427 1419 1411 1410 1407 1404 1399 1394 1390 1385 1379 1373 1369 1365 1360 1356 1352 1348 1345 1342 1339 1337
1412 1410 1409 1409 1409 1410 1413 1415 1418 1421 1423 1426 1427 1428 1429 1429 1428 1427 1425 1423 1421 1418 1413 1405 1400 1398 1394 1390 1385 1380 1375 1369 1364 1358 1354 1349 1344 1340 1336 1333 1330 1328 1326
1402 1400 1398 1397 1397 1399 1401 1403 1407 1410 1412 1415 1417 1419 1420 1420 1418 1418 1416 1414 1412 1409 1406 1400 1392 1389 1385 1381 1376 1370 1365 1360 1354 1348 1343 1337 1333 1328 1324 1321 1318 1316 1315
1392 1389 1387 1387 1387 1388 1390 1392 1396 1399 1402 1405 1407 1409 1410 1410 1409 1408 1407 1405 1403 1400 1397 1393 1386 1381 1377 1373 1368 1362 1355 1350 1344 1338 1332 1327 1322 1317 1313 1310 1307 1305 1304
1382 1380 1378 1376 1376 1377 1378 1381 1385 1389 1392 1395 1397 1399 1400 1400 1400 1399 1398 1396 1394 1392 1389 1385 1380 1374 1369 1365 1361 1355 1347 1340 1334 1330 1323 1317 1312 1306 1302 1299 1296 1294 1293
1373 1370 1367 1366 1366 1366 1368 1372 1376 1379 1383 1385 1387 1389 1390 1391 1390 1390 1389 1388 1388 1385 1381 1378 1372 1367 1362 1358 1353 1347 1341 1333 1322 1321 1315 1307 1304 1297 1293 1290 1287 1285 1283
1363 1360 1357 1356 1355 1356 1359 1363 1366 1369 1373 1376 1378 1380 1381 1381 1381 1381 1380 1379 1377 1375 1373 1370 1365 1359 1355 1350 1345 1338 1333 1325 1317 1311 1307 1296 1294 1288 1284 1280 1278 1276 1275
1353 1350 1347 1346 1346 1346 1350 1354 1358 1361 1364 1366 1369 1371 1372 1372 1372 1372 1371 1368 1366 1364 1363 1360 1356 1350 1346 1342 1337 1331 1324 1316 1308 1303 1300 1290 1284 1280 1275 1271 1268 1266 1265
1343 1340 1338 1337 1336 1337 1340 1344 1350 1353 1355 1357 1360 1362 1363 1364 1364 1364 1363 1360 1358 1355 1354 1351 1347 1343 1339 1334 1330 1323 1316 1309 1300 1294 1292 1285 1278 1273 1266 1262 1260 1258 1257
1335 1332 1329 1328 1327 1328 1331 1335 1340 1344 1346 1349 1351 1353 1354 1355 1356 1356 1355 1353 1350 1348 1346 1342 1338 1333 1329 1324 1320 1315 1309 1303 1295 1287 1283 1280 1274 1270 1262 1256 1254 1252 1251